Vilalleons





Hora UTC 08:55
Temperatura 3.2 ºC
Humedad 94.0 %
Presión 1027.5 hPa
Pluja 0.0 mm
Velocidad viento 0.0 km/h
Dirección viento NW

Datos diarios 2020-02-20



Hora UTC (invierno +1h; verano +2h)
Temperatura (ºC) Humedad (%) Presión (hPa) Velocidad viento (km/h) Precipitación (mm)
Hora UTC Aire Humedad Presión Vel. Dir. Vel. Max Dir. Intent. máx 5 min.
00:05 0.8 95.0 1028.5 3.2 ESE 3.2 0.0
00:10 0.7 95.0 1028.5 3.2 ESE 3.2 0.0
00:15 0.8 95.0 1028.5 1.6 ESE 3.2 0.0
00:20 0.7 95.0 1028.4 3.2 ESE 3.2 0.0
00:25 0.7 95.0 1028.3 3.2 ESE 3.2 0.0
00:30 0.8 96.0 1028.3 1.6 ESE 3.2 0.0
00:35 1.0 96.0 1028.1 0.0 ESE 3.2 0.0
00:40 1.0 96.0 1028.3 1.6 ESE 3.2 0.0
00:45 0.8 95.0 1028.4 1.6 ESE 3.2 0.0
00:50 0.8 95.0 1028.3 1.6 ESE 3.2 0.0
00:55 0.7 95.0 1028.3 1.6 ESE 3.2 0.0
01:00 0.7 96.0 1028.4 1.6 ESE 3.2 0.0
01:05 0.6 95.0 1028.4 3.2 ESE 4.8 0.0
01:10 0.5 95.0 1028.4 1.6 ESE 4.8 0.0
01:15 0.4 95.0 1028.2 1.6 ESE 3.2 0.0
01:20 0.4 95.0 1028.1 1.6 ESE 3.2 0.0
01:25 0.4 96.0 1028.0 3.2 ESE 3.2 0.0
01:30 0.4 96.0 1027.9 1.6 ESE 3.2 0.0
01:35 0.4 96.0 1027.9 0.0 ESE 3.2 0.0
01:40 0.4 96.0 1027.8 1.6 ESE 3.2 0.0
01:45 0.3 95.0 1027.8 3.2 ESE 3.2 0.0
01:50 0.2 95.0 1027.7 1.6 ESE 3.2 0.0
01:55 0.1 95.0 1027.8 3.2 ESE 4.8 0.0
02:00 0.1 95.0 1027.8 3.2 ESE 4.8 0.0
02:05 0.0 96.0 1027.6 3.2 ESE 4.8 0.0
02:10 0.1 96.0 1027.6 1.6 ESE 4.8 0.0
02:15 0.2 96.0 1027.6 1.6 ESE 3.2 0.0
02:20 0.1 95.0 1027.5 3.2 ESE 3.2 0.0
02:25 0.0 96.0 1027.4 1.6 ESE 3.2 0.0
02:30 0.1 96.0 1027.4 3.2 ESE 3.2 0.0
02:35 0.2 96.0 1027.4 1.6 ESE 3.2 0.0
02:40 0.3 96.0 1027.3 1.6 ESE 3.2 0.0
02:45 0.2 96.0 1027.3 1.6 ESE 3.2 0.0
02:50 0.1 96.0 1027.2 1.6 ESE 3.2 0.0
02:55 0.1 96.0 1027.1 3.2 ESE 3.2 0.0
03:00 0.1 96.0 1027.1 3.2 ESE 3.2 0.0
03:05 0.1 96.0 1027.1 3.2 ESE 3.2 0.0
03:10 0.1 96.0 1027.0 1.6 ESE 3.2 0.0
03:15 0.0 96.0 1026.9 0.0 ESE 3.2 0.0
03:20 -0.1 95.0 1026.9 1.6 ESE 3.2 0.0
03:25 -0.2 96.0 1026.9 1.6 ESE 3.2 0.0
03:30 -0.2 96.0 1026.8 1.6 ESE 3.2 0.0
03:35 -0.2 96.0 1026.8 1.6 ESE 3.2 0.0
03:40 -0.3 96.0 1026.9 1.6 ESE 3.2 0.0
03:45 -0.3 96.0 1026.8 1.6 ESE 3.2 0.0
03:50 -0.4 96.0 1026.8 1.6 ESE 3.2 0.0
03:55 -0.6 96.0 1026.7 1.6 ESE 4.8 0.0
04:00 -0.6 96.0 1026.8 1.6 ESE 4.8 0.0
04:05 -0.4 96.0 1026.7 1.6 ESE 3.2 0.0
04:10 -0.4 96.0 1026.7 3.2 ESE 3.2 0.0
04:15 -0.5 96.0 1026.7 0.0 ESE 3.2 0.0
04:20 -0.6 96.0 1026.5 1.6 ESE 3.2 0.0
04:25 -0.6 96.0 1026.7 1.6 ESE 3.2 0.0
04:30 -0.6 96.0 1026.7 1.6 ESE 3.2 0.0
04:35 -0.7 96.0 1026.6 3.2 ESE 3.2 0.0
04:40 -0.7 96.0 1026.6 1.6 ESE 3.2 0.0
04:45 -0.7 96.0 1026.5 3.2 ESE 3.2 0.0
04:50 -0.7 96.0 1026.6 3.2 ESE 3.2 0.0
04:55 -0.8 96.0 1026.5 3.2 ESE 4.8 0.0
05:00 -0.9 96.0 1026.5 1.6 ESE 4.8 0.0
05:05 -0.9 96.0 1026.5 1.6 ESE 4.8 0.0
05:10 -0.9 96.0 1026.5 1.6 ESE 3.2 0.0
05:15 -0.9 96.0 1026.4 3.2 ESE 3.2 0.0
05:20 -1.0 96.0 1026.4 1.6 ESE 3.2 0.0
05:25 -1.1 96.0 1026.4 1.6 ESE 3.2 0.0
05:30 -1.0 97.0 1026.5 3.2 ESE 3.2 0.0
05:35 -1.0 97.0 1026.3 1.6 ESE 3.2 0.0
05:40 -1.0 97.0 1026.4 1.6 ESE 3.2 0.0
05:45 -0.8 97.0 1026.4 1.6 ESE 3.2 0.0
05:50 -0.8 97.0 1026.4 1.6 ESE 3.2 0.0
05:55 -0.9 96.0 1026.5 1.6 ESE 3.2 0.0
06:00 -0.9 96.0 1026.4 1.6 ESE 3.2 0.0
06:05 -0.9 96.0 1026.5 3.2 ESE 3.2 0.0
06:10 -1.0 96.0 1026.5 1.6 ESE 3.2 0.0
06:15 -1.0 96.0 1026.4 3.2 ESE 3.2 0.0
06:20 -1.0 97.0 1026.5 1.6 ESE 3.2 0.0
06:25 -0.9 97.0 1026.4 1.6 ESE 3.2 0.0
06:30 -0.8 97.0 1026.5 1.6 ESE 3.2 0.0
06:35 -0.9 97.0 1026.5 3.2 ESE 4.8 0.0
06:40 -0.9 97.0 1026.4 3.2 ESE 3.2 0.0
06:45 -0.9 97.0 1026.4 1.6 ESE 4.8 0.0
06:50 -0.9 97.0 1026.5 3.2 ESE 4.8 0.0
06:55 -0.8 97.0 1026.4 1.6 ESE 3.2 0.0
07:00 -0.8 97.0 1026.4 3.2 ESE 3.2 0.0
07:05 -0.8 96.0 1026.5 3.2 ESE 3.2 0.0
07:10 -0.8 97.0 1026.5 1.6 ESE 4.8 0.0
07:15 -0.7 97.0 1026.5 1.6 ESE 3.2 0.0
07:20 -0.6 97.0 1026.4 0.0 ESE 3.2 0.0
07:25 -0.6 97.0 1026.4 1.6 ESE 3.2 0.0
07:30 -0.3 97.0 1026.5 1.6 ESE 3.2 0.0
07:35 0.0
07:40 0.6 97.0 1026.7 1.6 ESE 3.2 0.0
07:45 0.9 97.0 1026.6 1.6 ESE 3.2 0.0
07:50 1.2 98.0 1026.7 3.2 ESE 4.8 0.0
07:55 1.4 97.0 1026.6 1.6 ESE 4.8 0.0
08:00 1.8 97.0 1026.7 0.0 ESE 3.2 0.0
08:05 2.2 97.0 1026.7 0.0 ESE 3.2 0.0
08:10 2.6 97.0 1026.7 0.0 ESE 1.6 0.0
08:15 2.8 96.0 1026.8 1.6 N 3.2 0.0
08:20 2.8 95.0 1027.0 1.6 N 3.2 0.0
08:25 3.1 95.0 1026.8 0.0 N 3.2 0.0
08:30 3.2 95.0 1026.9 0.0 NW 3.2 0.0
08:35 0.0
08:40 3.1 93.0 1027.3 1.6 NW 4.8 0.0
08:45 3.1 92.0 1027.2 0.0 NW 4.8 0.0
08:50 2.9 93.0 1027.4 0.0 NW 3.2 0.0
08:55 3.2 94.0 1027.5 0.0 NW 3.2 0.0
Máxima 3.2 98.0 1028.5 3.2 ESE 4.8 0.0
Mínima -1.1 92.0 1026.3
Total 0.0